Вернуться в каталог

NAVSTAR 33

USA 92

АктивенНавигацияMEO
NORAD 22700·PAYLOAD·🇺🇸 United States

Запущен Jun 26, 1993 с Cape Canaveral Space Force Station

Loading…

Ближайшие Пролёты (ближайшие 24 часа)

TLE

УстаревающийSource: Space-Track

Эпоха: Aug 29, 2026, 05:01 UTC

1 22700U 93042A   26241.20921500  .00000025  00000-0  00000+0 0  9999
2 22700  54.7137 166.4280 0013035  35.9107  74.2466  1.89431900238517

Отслеживайте NAVSTAR 33 в реальном времени с AllMySat

Download on the App Store